QPF
0.00 0.00 0.00 0.00 0.00 0.00 0.00 0.00 0.01 0.00 0.00 0.00 0.00 0.00 0.00 0.00 0.00 0.01 0.01 0.00 0.00 0.00 0.00 0.00 0.00 0.00 0.00 0.00 0.00 0.00 0.00 0.00 0.00 0.00 0.00 0.00 0.00 0.00 0.00 0.00 0.00 0.00 0.00
0.00 0.00 0.00 0.00 0.00 0.00 0.00 0.00 0.01 0.00 0.00 0.00 0.00 0.00 0.00 0.00 0.00 0.01 0.01 0.00 0.00 0.00 0.00 0.00 0.00 0.00 0.00 0.00 0.00 0.00 0.00 0.00 0.00 0.00 0.00 0.00 0.00 0.00 0.00 0.00 0.00 0.00 0.00
0.00 0.00 0.00 0.00 0.00 0.00 0.01 0.00 0.02 0.00 0.00 0.00 0.00 0.00 0.00 0.00 0.00 0.00 0.01 0.00 0.00 0.00 0.00 0.00 0.00 0.00 0.00 0.00 0.00 0.00 0.00 0.00 0.00 0.00 0.00 0.00 0.00 0.00 0.00 0.00 0.00 0.00 0.00
0.00 0.00 0.00 0.00 0.00 0.00 0.01 0.01 0.02 0.00 0.00 0.00 0.00 0.00 0.00 0.00 0.00 0.00 0.01 0.00 0.00 0.00 0.00 0.00 0.00 0.00 0.00 0.00 0.00 0.00 0.00 0.00 0.00 0.00 0.00 0.00 0.00 0.00 0.00 0.00 0.01 0.00 0.00
0.00 0.00 0.00 0.00 0.01 0.00 0.01 0.01 0.01 0.00 0.00 0.00 0.00 0.00 0.00 0.00 0.00 0.00 0.00 0.01 0.00 0.00 0.00 0.00 0.00 0.00 0.00 0.00 0.00 0.00 0.00 0.00 0.00 0.00 0.00 0.00 0.00 0.00 0.00 0.00 0.00 0.00 0.00
0.00 0.00 0.00 0.00 0.00 0.00 0.00 0.00 0.00 0.00 0.00 0.00 0.00 0.00 0.01 0.00 0.00 0.00 0.00 0.01 0.00 0.00 0.00 0.00 0.00 0.00 0.00 0.00 0.00 0.00 0.00 0.00 0.00 0.00 0.00 0.00 0.00 0.00 0.00 0.00 0.00 0.00 0.00
0.00 0.00 0.00 0.00 0.00 0.00 0.00 0.00 0.00 0.00 0.00 0.00 0.00 0.02 0.07 0.05 0.01 0.00 0.00 0.00 0.00 0.00 0.00 0.00 0.00 0.00 0.00 0.00 0.00 0.00 0.00 0.00 0.00 0.00 0.00 0.00 0.00 0.00 0.00 0.00 0.00 0.00 0.00
0.00 0.00 0.00 0.00 0.00 0.00 0.00 0.00 0.00 0.00 0.00 0.00 0.00 0.00 0.03 0.01 0.01 0.01 0.00 0.00 0.00 0.01 0.00 0.00 0.00 0.00 0.00 0.00 0.00 0.00 0.00 0.00 0.00 0.00 0.00 0.00 0.00 0.00 0.00 0.00 0.00 0.00 0.00
0.00 0.00 0.00 0.00 0.00 0.00 0.00 0.01 0.02 0.01 0.00 0.00 0.01 0.02 0.04 0.04 0.05 0.04 0.02 0.02 0.00 0.01 0.01 0.00 0.00 0.00 0.00 0.00 0.00 0.00 0.00 0.00 0.00 0.00 0.00 0.00 0.00 0.00 0.00 0.00 0.00 0.00 0.00
0.00 0.00 0.00 0.00 0.00 0.00 0.00 0.02 0.03 0.03 0.02 0.01 0.01 0.02 0.04 0.03 0.03 0.03 0.04 0.03 0.05 0.02 0.00 0.02 0.01 0.00 0.00 0.00 0.00 0.00 0.00 0.00 0.00 0.00 0.00 0.00 0.00 0.00 0.00 0.00 0.00 0.00 0.00
0.00 0.00 0.00 0.00 0.00 0.00 0.00 0.01 0.02 0.02 0.05 0.06 0.03 0.02 0.02 0.00 0.00 0.01 0.01 0.02 0.03 0.04 0.02 0.03 0.04 0.00 0.00 0.00 0.00 0.00 0.00 0.00 0.00 0.00 0.00 0.00 0.00 0.00 0.00 0.00 0.00 0.00 0.00
0.00 0.00 0.00 0.00 0.00 0.00 0.01 0.01 0.02 0.03 0.02 0.02 0.03 0.01 0.00 0.00 0.01 0.02 0.02 0.03 0.02 0.01 0.05 0.06 0.05 0.04 0.00 0.00 0.00 0.00 0.00 0.00 0.00 0.00 0.00 0.00 0.00 0.00 0.00 0.00 0.00 0.00 0.00
0.00 0.00 0.00 0.00 0.00 0.01 0.02 0.02 0.05 0.07 0.04 0.03 0.02 0.02 0.03 0.00 0.00 0.01 0.02 0.02 0.00 0.00 0.00 0.02 0.06 0.03 0.01 0.00 0.00 0.00 0.00 0.00 0.00 0.00 0.00 0.02 0.01 0.00 0.00 0.00 0.00 0.00 0.00
0.00 0.00 0.00 0.00 0.00 0.00 0.00 0.01 0.01 0.01 0.04 0.03 0.03 0.07 0.04 0.03 0.01 0.01 0.02 0.02 0.00 0.00 0.01 0.03 0.05 0.04 0.02 0.00 0.00 0.00 0.00 0.00 0.00 0.00 0.00 0.04 0.06 0.01 0.00 0.00 0.00 0.00 0.00
0.00 0.00 0.00 0.00 0.00 0.00 0.00 0.00 0.01 0.01 0.00 0.00 0.02 0.04 0.06 0.04 0.03 0.04 0.03 0.05 0.02 0.03 0.01 0.01 0.02 0.02 0.01 0.01 0.00 0.00 0.00 0.00 0.00 0.00 0.01 0.01 0.05 0.06 0.01 0.00 0.00 0.00 0.00
0.00 0.00 0.00 0.00 0.00 0.00 0.00 0.00 0.00 0.00 0.00 0.00 0.00 0.01 0.03 0.05 0.05 0.05 0.03 0.01 0.01 0.06 0.02 0.01 0.00 0.01 0.02 0.02 0.01 0.01 0.00 0.00 0.01 0.03 0.04 0.02 0.03 0.05 0.04 0.00 0.00 0.00 0.00
0.00 0.00 0.00 0.00 0.00 0.00 0.00 0.00 0.00 0.00 0.00 0.00 0.00 0.01 0.02 0.04 0.04 0.05 0.04 0.03 0.01 0.06 0.05 0.04 0.01 0.00 0.01 0.02 0.03 0.03 0.02 0.01 0.03 0.05 0.07 0.03 0.03 0.02 0.03 0.01 0.00 0.01 0.00
0.00 0.00 0.00 0.00 0.00 0.00 0.00 0.00 0.00 0.00 0.00 0.00 0.00 0.00 0.01 0.02 0.02 0.01 0.01 0.01 0.03 0.05 0.04 0.02 0.01 0.00 0.01 0.02 0.04 0.03 0.03 0.01 0.04 0.04 0.01 0.04 0.04 0.02 0.01 0.01 0.01 0.02 0.01
0.00 0.00 0.00 0.00 0.00 0.00 0.00 0.00 0.00 0.00 0.00 0.00 0.00 0.00 0.00 0.00 0.02 0.02 0.01 0.02 0.03 0.03 0.02 0.01 0.00 0.00 0.01 0.06 0.04 0.02 0.01 0.02 0.03 0.01 0.01 0.02 0.01 0.00 0.04 0.02 0.00 0.01 0.02
0.00 0.00 0.00 0.00 0.00 0.00 0.00 0.00 0.00 0.00 0.00 0.00 0.00 0.00 0.00 0.00 0.00 0.00 0.01 0.01 0.02 0.03 0.04 0.05 0.04 0.03 0.06 0.07 0.03 0.01 0.01 0.01 0.02 0.03 0.02 0.03 0.01 0.01 0.04 0.05 0.01 0.01 0.02
0.00 0.00 0.00 0.00 0.00 0.00 0.00 0.00 0.00 0.00 0.00 0.00 0.00 0.00 0.00 0.00 0.00 0.00 0.00 0.00 0.01 0.02 0.04 0.08 0.07 0.08 0.10 0.06 0.06 0.03 0.01 0.01 0.05 0.08 0.06 0.04 0.01 0.00 0.01 0.01 0.00 0.00 0.00
0.00 0.00 0.00 0.00 0.00 0.00 0.00 0.00 0.00 0.00 0.00 0.00 0.00 0.00 0.00 0.00 0.00 0.00 0.00 0.00 0.00 0.00 0.01 0.02 0.05 0.07 0.06 0.03 0.04 0.04 0.01 0.00 0.01 0.01 0.02 0.02 0.01 0.01 0.02 0.04 0.01 0.01 0.00
0.00 0.00 0.00 0.00 0.00 0.00 0.00 0.00 0.00 0.00 0.00 0.00 0.00 0.00 0.00 0.00 0.00 0.00 0.00 0.00 0.00 0.00 0.01 0.00 0.02 0.02 0.04 0.05 0.01 0.01 0.00 0.01 0.01 0.01 0.01 0.00 0.00 0.00 0.00 0.00 0.00 0.00 0.01
0.00 0.00 0.00 0.00 0.00 0.00 0.00 0.00 0.00 0.00 0.00 0.00 0.00 0.00 0.00 0.00 0.00 0.00 0.00 0.01 0.01 0.00 0.01 0.01 0.02 0.05 0.05 0.05 0.01 0.02 0.01 0.00 0.00 0.00 0.00 0.00 0.00 0.00 0.01 0.01 0.00 0.00 0.00
0.00 0.00 0.00 0.00 0.00 0.00 0.00 0.00 0.00 0.00 0.00 0.00 0.00 0.00 0.00 0.00 0.00 0.00 0.00 0.00 0.01 0.01 0.01 0.01 0.02 0.05 0.06 0.05 0.02 0.03 0.03 0.01 0.00 0.00 0.00 0.00 0.00 0.00 0.00 0.00 0.00 0.00 0.00
0.00 0.00 0.00 0.00 0.00 0.00 0.00 0.00 0.00 0.00 0.00 0.00 0.00 0.00 0.00 0.00 0.00 0.00 0.00 0.00 0.01 0.01 0.01 0.01 0.03 0.08 0.07 0.05 0.01 0.02 0.03 0.02 0.02 0.02 0.00 0.00 0.00 0.00 0.00 0.00 0.00 0.00 0.00
MSLP
1009.75 1009.81 1010.59 1010.97 1011.29 1011.48 1011.82 1011.89 1012.10 1012.24 1012.43 1012.50 1012.70 1012.84 1012.86 1012.95 1012.80 1012.72 1012.74 1012.76 1012.74 1012.74 1012.75 1012.72 1012.74 1012.67 1012.74 1012.82 1012.85 1012.92 1012.84 1012.74 1012.73 1012.61 1012.35 1012.08 1011.90 1011.75 1011.61 1011.47 1011.03 1010.69 1010.90
1009.32 1009.75 1010.84 1011.12 1011.50 1011.74 1011.90 1012.11 1012.27 1012.49 1012.65 1012.69 1012.79 1012.95 1013.02 1013.03 1012.99 1012.83 1012.79 1012.90 1012.98 1013.01 1012.94 1012.85 1012.85 1012.83 1012.94 1012.91 1013.05 1013.01 1013.00 1012.89 1012.86 1012.72 1012.32 1011.97 1011.96 1011.88 1011.82 1011.68 1011.42 1011.20 1011.02
1009.27 1009.74 1010.69 1011.18 1011.44 1011.67 1011.75 1012.03 1012.25 1012.45 1012.68 1012.88 1012.86 1013.10 1013.17 1013.18 1013.18 1013.13 1012.96 1012.93 1012.95 1013.01 1013.01 1013.06 1013.07 1013.12 1013.10 1013.11 1013.16 1013.18 1013.16 1013.04 1013.00 1012.73 1012.15 1011.51 1011.95 1012.05 1011.98 1011.75 1011.53 1011.33 1011.07
1009.29 1009.68 1010.17 1011.09 1011.44 1011.58 1011.68 1011.93 1012.08 1012.37 1012.61 1012.84 1012.94 1013.06 1013.12 1013.28 1013.27 1013.19 1013.08 1013.08 1013.25 1013.17 1013.21 1013.25 1013.27 1013.28 1013.23 1013.27 1013.30 1013.25 1013.27 1013.25 1013.15 1012.56 1011.86 1011.70 1011.35 1012.22 1012.12 1011.81 1011.58 1011.47 1011.27
1009.46 1009.73 1010.08 1011.18 1011.43 1011.56 1011.77 1011.92 1012.06 1012.27 1012.53 1012.77 1012.83 1012.95 1013.05 1013.15 1013.19 1013.19 1013.21 1013.07 1013.20 1013.22 1013.30 1013.39 1013.47 1013.50 1013.44 1013.57 1013.53 1013.48 1013.40 1013.45 1013.10 1012.31 1012.29 1012.24 1011.72 1012.44 1012.30 1012.12 1011.79 1011.66 1011.51
1009.42 1009.71 1010.48 1011.16 1011.39 1011.61 1011.81 1011.89 1011.96 1012.14 1012.44 1012.71 1012.82 1012.82 1012.91 1013.07 1013.10 1013.11 1013.18 1013.15 1013.23 1013.29 1013.37 1013.30 1013.39 1013.52 1013.48 1013.66 1013.67 1013.62 1013.50 1013.48 1012.96 1012.51 1012.44 1012.39 1012.31 1012.62 1012.51 1012.35 1012.10 1011.91 1011.62
1009.46 1009.70 1010.35 1011.22 1011.41 1011.62 1011.76 1011.87 1011.96 1012.06 1012.25 1012.50 1012.62 1012.71 1012.83 1012.90 1012.94 1013.00 1013.08 1013.18 1013.23 1013.31 1013.44 1013.41 1013.38 1013.40 1013.45 1013.53 1013.69 1013.73 1013.69 1013.60 1012.65 1012.67 1012.55 1012.44 1012.78 1012.78 1012.60 1012.44 1012.36 1012.04 1011.97
1009.73 1010.00 1010.25 1011.20 1011.42 1011.52 1011.61 1011.75 1011.81 1011.95 1012.08 1012.18 1012.33 1012.47 1012.52 1012.54 1012.72 1012.80 1012.90 1013.00 1013.17 1013.28 1013.30 1013.41 1013.51 1013.55 1013.41 1013.26 1013.52 1013.72 1013.81 1013.68 1012.81 1012.75 1012.77 1012.65 1013.26 1013.03 1012.79 1012.62 1012.49 1012.32 1012.22
1010.00 1010.31 1010.42 1010.56 1011.00 1011.47 1011.47 1011.60 1011.80 1011.85 1011.92 1012.00 1012.05 1012.17 1012.29 1012.31 1012.35 1012.51 1012.62 1012.73 1012.88 1013.05 1013.20 1013.30 1013.42 1013.48 1013.50 1013.54 1013.53 1013.61 1013.78 1013.66 1012.75 1012.78 1012.59 1012.46 1013.44 1013.21 1013.06 1012.86 1012.70 1012.58 1012.38
1010.28 1010.50 1010.59 1010.59 1010.60 1010.55 1010.61 1011.29 1011.61 1011.75 1011.81 1011.87 1011.92 1011.96 1012.10 1012.21 1012.29 1012.39 1012.49 1012.61 1012.72 1012.83 1012.93 1013.04 1013.18 1013.26 1013.40 1013.36 1013.51 1013.58 1013.70 1013.70 1012.81 1012.91 1012.65 1013.10 1013.39 1013.30 1013.15 1013.09 1012.78 1012.82 1012.61
1010.48 1010.65 1010.59 1010.57 1010.52 1010.55 1010.56 1010.76 1011.17 1011.44 1011.63 1011.74 1011.71 1011.66 1011.80 1011.58 1011.14 1011.55 1011.68 1011.95 1012.34 1012.56 1012.64 1012.67 1012.92 1013.10 1013.19 1013.38 1013.46 1013.36 1013.53 1012.65 1012.65 1012.53 1012.52 1013.64 1013.54 1013.51 1013.46 1013.26 1013.09 1012.83 1012.84
1011.42 1011.69 1011.82 1011.71 1011.41 1010.75 1010.63 1010.58 1010.51 1010.58 1010.66 1010.67 1010.83 1010.67 1010.54 1010.42 1010.24 1010.65 1011.23 1011.68 1012.00 1012.20 1012.33 1012.56 1012.67 1012.90 1013.07 1012.24 1012.53 1013.29 1012.81 1012.14 1012.28 1012.33 1012.32 1013.40 1013.66 1013.63 1013.67 1013.55 1013.33 1013.06 1012.92
1012.46 1012.61 1012.59 1012.39 1011.93 1011.52 1011.47 1011.04 1010.90 1010.78 1010.46 1010.38 1010.35 1010.27 1010.37 1010.11 1009.95 1010.07 1010.63 1011.07 1011.20 1011.51 1011.49 1011.74 1012.18 1012.23 1011.88 1011.66 1011.60 1011.75 1011.77 1011.64 1011.78 1011.97 1012.49 1013.27 1013.61 1013.62 1013.62 1013.61 1013.48 1013.38 1013.12
1013.16 1013.39 1013.31 1013.10 1012.60 1012.14 1011.93 1011.99 1011.40 1011.15 1010.84 1010.27 1009.83 1009.91 1010.12 1010.18 1009.84 1009.65 1009.84 1010.18 1010.29 1010.43 1010.53 1010.73 1011.55 1011.55 1011.58 1011.22 1011.17 1011.40 1011.33 1011.33 1011.48 1011.67 1012.06 1013.02 1013.43 1013.55 1013.49 1013.53 1013.49 1013.47 1013.33
1013.76 1013.96 1013.81 1013.64 1013.38 1012.86 1012.24 1012.04 1011.97 1011.78 1011.33 1010.98 1010.67 1009.94 1009.92 1009.69 1009.66 1009.76 1009.73 1010.13 1010.16 1010.01 1010.39 1010.35 1010.81 1011.08 1011.05 1010.82 1010.75 1010.93 1011.06 1010.89 1011.09 1011.43 1011.73 1012.95 1013.23 1013.57 1013.42 1013.57 1013.49 1013.45 1013.51
1014.41 1014.33 1014.22 1013.98 1013.84 1013.38 1012.93 1012.61 1012.21 1011.63 1011.33 1010.96 1010.76 1010.53 1009.88 1009.64 1009.45 1009.45 1009.49 1009.63 1009.63 1009.92 1010.11 1010.18 1010.13 1010.27 1010.49 1010.52 1010.42 1010.59 1010.79 1010.71 1010.84 1011.27 1012.22 1012.87 1013.11 1013.55 1013.53 1013.50 1013.52 1013.55 1013.44
1014.72 1014.66 1014.58 1014.36 1014.09 1013.83 1013.43 1012.94 1012.41 1011.81 1011.48 1011.00 1010.70 1010.65 1010.32 1009.88 1009.39 1009.29 1009.26 1009.22 1008.97 1009.16 1009.37 1009.82 1009.77 1009.73 1009.97 1010.29 1010.46 1010.50 1010.65 1010.58 1011.05 1011.31 1012.12 1012.57 1012.97 1013.27 1013.48 1013.46 1013.49 1013.53 1013.41
1015.32 1014.99 1014.79 1014.54 1014.17 1013.97 1013.61 1013.19 1012.75 1012.14 1011.72 1011.30 1010.81 1010.38 1010.15 1010.12 1010.00 1009.55 1009.32 1009.14 1008.72 1008.78 1009.01 1009.09 1009.26 1009.40 1009.85 1009.88 1010.05 1010.27 1010.44 1010.43 1010.76 1011.13 1011.72 1012.38 1012.54 1012.90 1013.22 1013.50 1013.47 1013.59 1013.50
1015.90 1015.49 1015.11 1014.74 1014.39 1014.16 1013.66 1013.14 1012.68 1012.14 1011.75 1011.36 1010.96 1010.43 1010.14 1009.88 1009.48 1009.46 1009.30 1008.97 1008.91 1008.80 1008.75 1008.85 1008.97 1009.23 1009.76 1010.00 1010.20 1010.22 1009.88 1010.32 1010.77 1010.90 1011.70 1012.03 1012.47 1012.99 1013.10 1013.36 1013.38 1013.54 1013.59
1016.32 1016.00 1015.59 1015.14 1014.75 1014.38 1013.90 1013.35 1012.69 1012.11 1011.68 1011.19 1010.86 1010.46 1010.28 1009.66 1009.42 1009.19 1008.88 1008.67 1008.72 1008.65 1008.56 1008.51 1008.31 1008.85 1009.16 1009.56 1009.99 1010.42 1010.07 1010.42 1010.80 1011.07 1011.44 1012.02 1012.47 1012.82 1012.90 1013.02 1012.97 1013.28 1013.58
1016.20 1016.07 1015.79 1015.42 1015.12 1014.70 1014.08 1013.61 1013.13 1012.46 1012.12 1011.46 1011.03 1010.57 1010.18 1009.66 1009.35 1009.18 1009.09 1008.63 1008.16 1008.01 1007.95 1008.25 1008.30 1008.51 1008.90 1009.39 1010.26 1010.57 1010.73 1010.86 1011.02 1011.30 1011.61 1012.19 1012.58 1012.89 1012.83 1013.08 1013.33 1013.59 1013.51
1016.34 1016.24 1016.00 1015.57 1015.27 1014.89 1014.54 1014.13 1013.68 1013.22 1012.50 1011.82 1011.27 1011.01 1010.42 1009.65 1009.27 1009.11 1008.53 1008.35 1008.22 1008.00 1007.72 1007.70 1007.82 1008.04 1008.56 1008.91 1009.14 1010.02 1010.68 1011.45 1011.77 1011.71 1011.65 1012.13 1012.58 1012.85 1013.10 1013.23 1013.42 1013.75 1013.77
1016.52 1016.40 1016.16 1015.90 1015.56 1015.02 1014.73 1014.10 1013.68 1013.10 1012.41 1011.78 1011.00 1010.67 1010.33 1009.80 1009.05 1008.67 1008.35 1007.69 1007.74 1007.78 1007.55 1007.30 1007.26 1007.27 1007.60 1008.35 1008.02 1008.42 1009.73 1010.25 1011.34 1012.27 1012.38 1012.24 1012.65 1013.17 1013.49 1014.12 1014.20 1014.03 1014.04
1016.58 1016.52 1016.11 1015.98 1015.69 1015.20 1014.87 1014.30 1013.91 1013.31 1012.56 1012.05 1011.52 1010.85 1010.14 1009.49 1008.66 1008.13 1007.85 1007.34 1007.09 1007.16 1006.94 1006.79 1006.73 1006.80 1006.67 1007.33 1007.63 1007.73 1007.67 1008.50 1010.20 1011.91 1012.88 1013.23 1013.22 1013.89 1014.10 1014.42 1014.61 1014.81 1014.64
1016.73 1016.68 1016.23 1015.92 1015.50 1015.37 1015.11 1014.68 1014.17 1013.49 1012.98 1012.21 1011.59 1010.90 1010.09 1009.25 1008.93 1008.09 1007.48 1006.77 1006.43 1006.16 1006.27 1006.15 1006.06 1006.16 1006.14 1006.44 1006.83 1007.45 1007.60 1007.70 1007.94 1010.12 1012.28 1013.63 1014.09 1014.76 1014.90 1014.94 1015.06 1015.25 1014.85
1016.55 1016.56 1016.11 1015.76 1015.49 1015.28 1015.15 1014.82 1014.34 1013.61 1013.06 1012.26 1011.48 1010.82 1009.84 1009.29 1008.59 1007.89 1007.23 1006.14 1006.17 1005.69 1005.38 1005.43 1005.39 1005.50 1005.80 1005.66 1006.29 1006.69 1006.98 1007.16 1007.66 1009.05 1011.20 1013.18 1014.18 1015.41 1015.34 1015.48 1015.76 1015.49 1015.00
Thickness
5788 5790 5783 5778 5775 5773 5769 5769 5766 5764 5762 5760 5757 5755 5753 5751 5752 5752 5751 5749 5748 5748 5747 5747 5746 5746 5744 5742 5740 5739 5739 5739 5738 5737 5739 5740 5740 5741 5740 5740 5742 5742 5738
5792 5787 5778 5775 5770 5768 5767 5764 5761 5759 5757 5756 5754 5751 5749 5748 5749 5749 5749 5747 5745 5744 5744 5744 5743 5743 5740 5740 5737 5736 5735 5736 5734 5735 5737 5738 5738 5736 5736 5736 5736 5735 5734
5791 5785 5776 5771 5768 5766 5765 5762 5758 5757 5754 5751 5751 5746 5745 5744 5744 5744 5745 5744 5743 5742 5741 5740 5739 5738 5737 5736 5735 5733 5732 5732 5731 5731 5735 5739 5734 5732 5731 5732 5732 5731 5731
5790 5785 5780 5772 5767 5765 5763 5759 5758 5755 5752 5749 5747 5745 5743 5741 5740 5740 5741 5740 5738 5738 5737 5736 5735 5734 5733 5732 5730 5729 5728 5727 5727 5731 5734 5734 5736 5728 5727 5729 5728 5727 5726
5788 5784 5779 5770 5766 5763 5760 5758 5757 5754 5750 5747 5745 5743 5742 5739 5739 5738 5736 5737 5735 5735 5733 5731 5730 5729 5729 5726 5724 5724 5724 5722 5724 5729 5726 5726 5730 5723 5723 5723 5724 5722 5721
5786 5781 5774 5766 5763 5759 5756 5755 5754 5751 5748 5744 5742 5741 5739 5737 5736 5735 5733 5732 5732 5731 5729 5729 5727 5724 5724 5720 5720 5719 5720 5718 5721 5722 5721 5721 5720 5717 5716 5716 5717 5716 5715
5780 5777 5770 5762 5759 5755 5753 5752 5750 5748 5745 5742 5740 5739 5737 5735 5734 5733 5731 5729 5728 5727 5725 5724 5724 5723 5721 5719 5716 5714 5714 5713 5718 5716 5715 5714 5711 5710 5711 5710 5709 5710 5708
5773 5770 5766 5757 5754 5753 5751 5749 5747 5745 5743 5741 5739 5737 5735 5734 5732 5730 5729 5727 5724 5723 5722 5720 5718 5716 5717 5718 5714 5710 5708 5707 5713 5711 5709 5708 5702 5703 5705 5704 5703 5703 5701
5767 5762 5760 5757 5753 5749 5748 5745 5742 5740 5739 5737 5737 5734 5732 5732 5730 5728 5726 5724 5722 5719 5718 5717 5714 5712 5710 5709 5709 5707 5703 5703 5708 5705 5705 5704 5696 5697 5697 5697 5696 5695 5695
5762 5758 5756 5753 5751 5751 5749 5742 5738 5736 5735 5733 5732 5730 5728 5727 5725 5724 5722 5720 5718 5715 5714 5713 5711 5709 5705 5705 5702 5701 5699 5698 5701 5699 5699 5694 5691 5691 5692 5691 5692 5687 5688
5755 5753 5752 5750 5747 5745 5743 5740 5736 5733 5730 5728 5727 5726 5724 5725 5727 5723 5721 5718 5714 5711 5709 5709 5707 5705 5703 5699 5697 5697 5695 5699 5697 5696 5695 5686 5685 5683 5683 5683 5683 5684 5681
5736 5735 5734 5732 5733 5736 5735 5735 5734 5731 5729 5728 5726 5726 5726 5727 5727 5724 5719 5714 5710 5708 5706 5702 5701 5699 5697 5703 5698 5692 5693 5697 5694 5692 5691 5680 5677 5676 5675 5675 5676 5676 5676
5722 5720 5719 5718 5719 5721 5720 5721 5721 5720 5721 5722 5721 5720 5719 5721 5721 5720 5715 5711 5709 5706 5705 5702 5697 5697 5699 5701 5700 5696 5695 5694 5693 5689 5685 5676 5668 5669 5669 5668 5669 5668 5668
5709 5706 5705 5705 5706 5708 5708 5706 5708 5708 5709 5713 5715 5714 5711 5711 5714 5715 5713 5709 5708 5706 5704 5701 5694 5694 5695 5698 5697 5693 5692 5692 5690 5686 5683 5674 5666 5661 5663 5662 5662 5661 5661
5695 5692 5692 5690 5690 5692 5695 5693 5693 5692 5695 5697 5699 5703 5701 5705 5706 5705 5705 5700 5700 5701 5698 5698 5694 5692 5692 5694 5694 5691 5689 5690 5687 5684 5679 5669 5665 5657 5656 5656 5656 5655 5653
5678 5677 5677 5677 5674 5675 5677 5677 5677 5680 5682 5683 5685 5687 5690 5691 5695 5695 5696 5696 5696 5694 5692 5691 5692 5691 5690 5690 5691 5688 5685 5685 5685 5679 5670 5664 5660 5654 5650 5651 5649 5648 5649
5664 5662 5660 5661 5661 5661 5660 5660 5662 5663 5664 5668 5670 5671 5675 5678 5681 5684 5685 5687 5692 5690 5688 5684 5686 5687 5686 5685 5683 5683 5680 5681 5676 5672 5665 5661 5655 5652 5648 5645 5643 5642 5643
5645 5645 5645 5645 5646 5644 5645 5647 5648 5649 5648 5648 5652 5656 5659 5662 5665 5669 5672 5675 5679 5680 5681 5681 5680 5680 5678 5680 5678 5677 5677 5677 5673 5668 5662 5656 5653 5648 5644 5639 5639 5636 5637
5625 5625 5625 5626 5626 5624 5626 5629 5631 5633 5635 5636 5636 5640 5642 5646 5651 5653 5657 5663 5664 5668 5670 5672 5673 5674 5668 5669 5666 5668 5674 5670 5667 5664 5656 5651 5648 5643 5640 5636 5635 5632 5632
5607 5605 5604 5603 5602 5602 5603 5605 5610 5612 5614 5618 5621 5625 5626 5631 5635 5640 5645 5649 5650 5655 5658 5662 5666 5666 5665 5663 5661 5652 5664 5663 5661 5657 5651 5642 5641 5638 5636 5633 5633 5629 5627
5583 5579 5578 5577 5575 5576 5579 5579 5580 5584 5586 5591 5596 5601 5607 5613 5616 5622 5626 5634 5639 5645 5650 5650 5654 5655 5655 5655 5646 5645 5648 5651 5650 5647 5645 5639 5635 5631 5631 5627 5624 5622 5622
5557 5551 5548 5547 5547 5547 5549 5551 5554 5555 5560 5564 5569 5575 5581 5590 5597 5602 5611 5618 5624 5630 5637 5641 5645 5647 5646 5647 5645 5639 5634 5634 5632 5634 5637 5633 5629 5625 5621 5620 5618 5616 5615
5527 5523 5519 5517 5517 5519 5519 5524 5527 5532 5538 5542 5548 5553 5557 5566 5577 5584 5592 5605 5609 5615 5621 5629 5636 5641 5641 5638 5645 5643 5630 5632 5619 5618 5621 5625 5622 5617 5613 5607 5606 5607 5606
5501 5496 5495 5492 5491 5492 5494 5498 5501 5505 5511 5515 5520 5528 5537 5544 5559 5569 5578 5590 5598 5603 5610 5618 5626 5631 5636 5632 5635 5642 5648 5641 5621 5612 5609 5609 5609 5603 5602 5600 5596 5593 5594
5478 5474 5473 5472 5472 5470 5470 5472 5476 5481 5485 5493 5499 5507 5516 5528 5534 5550 5564 5577 5586 5596 5599 5607 5614 5620 5627 5629 5629 5630 5634 5636 5638 5620 5606 5597 5594 5589 5589 5588 5587 5583 5586
5462 5457 5457 5456 5453 5452 5451 5452 5455 5461 5466 5474 5482 5490 5501 5509 5521 5533 5547 5566 5574 5584 5593 5598 5605 5612 5616 5624 5623 5625 5627 5627 5627 5621 5605 5593 5586 5576 5577 5576 5573 5574 5577